Regional Weather Roundup
Issued by NWS Goodland, KS

Home | Current Version | Previous Version | Graphics & Text | Print | Product List | Glossary On
Versions: 1 2 3 4 5 6 7 8 9 10 11 12 13 14 15 16 17 18 19 20 21 22 23 24 25 26 27 28 29 30 31 32 33 34 35 36 37 38 39 40 41 42 43 44 45 46 47 48 49 50
057
ASUS43 KGLD 251308
RWRGLD

GOODLAND FORECAST AREA HOURLY WEATHER ROUNDUP
NATIONAL WEATHER SERVICE GOODLAND KS
700 AM MDT MON JUL 25 2016

...OFFICIAL OBSERVATIONS...

CITY           SKY/WX    TMP DP  RH WIND       PRES   REMARKS
GOODLAND KS    SUNNY     63  60  90 CALM      30.19S
HILL CITY KS   CLOUDY    67  65  93 N10       30.13R
IMPERIAL NEB   SUNNY     63  60  90 CALM      30.19R
MCCOOK NEB     CLOUDY    65  62  90 NE6       30.16S FOG
AKRON CO       SUNNY     59  55  87 SE10      30.22F
BURLINGTON CO  SUNNY     63  57  81 NE3       30.22S
LIMON CO       SUNNY     57  55  93 SE3       30.27R
$$

...UNOFFICIAL OBSERVATIONS...

CITY           SKY/WX    TMP DP  RH WIND       PRES   REMARKS
COLBY KS       SUNNY     64  64 100 NW3       30.18S
LENORA KS        N/A     65  32  29 MISG        N/A
NORTON KS      SUNNY     68  57  68 E6        30.14R
SHARON SPRINGS   N/A     64  62  95 CALM        N/A
KIT CARSON CO    N/A     63  59  86 CALM        N/A
YUMA CO          N/A     61  59  92 CALM        N/A
$$




USA.gov is the U.S. government's official web portal to all federal, state and local government web resources and services.